STARLINK-34590 (64675 NORAD) Tracking and Keplerian Element Data

This shows tracking and keplerian element data for the satellite.

Feedback or suggestion? Click here.




ElementValue
Catalog64675
NameSTARLINK-34590
Epoch Orbit2801
Epoch Day353.58024642
Epoch Year2025
RAAN139.5212
Inclination53.1577
Eccentricity0.0001402
Argument of Perigee80.3373
Mean Anonmoly279.7786
Mean Motion15.30201336
Decay Rate0.00018508
L11 64675U 25139M 25353.58024642 .00018508 00000+0 63541-3 0 9990
L22 64675 53.1577 139.5212 0001402 80.3373 279.7786 15.30201336 28013



Live tracking and technical data element details for STARLINK-34590 (NORAD 64675). STARLINK-34590 can be tracked NOW for your location showing map with azimuth and elevation plus other details from your city location.







IsCatalogInMostPopularTable: catalog: 64675, numindb: 10
Update: records affected: 1



GetName: 64675 STARLINK-34590

Hit Count: updated at: Mon, 20 Apr 2026 09:09:18 GMT